Location: Rounton
(54.4000°N, 1.3500°W)
Time: 11:47:48
(UTC+00:00)

Altair - All Passes

Search period start: 22 February 2024 00:00
Search period end: 03 March 2024 00:00
Orbit: 1501 x 1682 km, 47.2° (Epoch: 21 February)

Date Brightness Start Highest point End Pass type
(mag) Time Alt. Az. Time Alt. Az. Time Alt. Az.
22 Feb - 09:59:07 10° S 10:06:12 26° SE 10:13:26 10° E daylight
22 Feb - 12:00:27 10° SW 12:09:13 49° SSE 12:18:18 10° E daylight
22 Feb - 14:03:56 10° W 14:13:01 57° S 14:22:27 10° ESE daylight
22 Feb - 16:08:04 10° W 16:16:38 39° SSW 16:25:30 10° SE daylight
22 Feb - 18:13:56 10° W 18:19:17 16° SW 18:24:45 10° SSW visible
23 Feb - 09:34:20 10° S 09:41:10 24° SE 09:48:07 10° E daylight
23 Feb - 11:35:25 10° SW 11:44:06 48° SSE 11:53:05 10° E daylight
23 Feb - 13:38:48 10° WSW 13:47:52 57° S 13:57:17 10° ESE daylight
23 Feb - 15:42:54 10° W 15:51:32 41° SSW 16:00:27 10° SE daylight
23 Feb - 17:48:28 10° W 17:54:15 18° SW 18:00:10 10° SSW daylight
24 Feb - 09:09:35 10° S 09:16:08 22° SE 09:22:46 10° E daylight
24 Feb - 11:10:22 10° SW 11:18:59 46° SSE 11:27:53 10° E daylight
24 Feb - 13:13:41 10° WSW 13:22:43 57° S 13:32:06 10° ESE daylight
24 Feb - 15:17:44 10° W 15:26:24 42° SSW 15:35:23 10° SE daylight
24 Feb - 17:23:03 10° W 17:29:13 19° SW 17:35:31 10° S daylight
25 Feb - 08:44:54 10° S 08:51:07 21° SE 08:57:24 10° E daylight
25 Feb - 10:45:21 10° SW 10:53:53 44° SSE 11:02:40 10° E daylight
25 Feb - 12:48:33 10° WSW 12:57:33 57° S 13:06:55 10° ESE daylight
25 Feb - 14:52:34 10° W 15:01:17 44° SSW 15:10:19 10° SE daylight
25 Feb - 16:57:41 10° W 17:04:11 21° SW 17:10:49 10° S daylight
26 Feb - 08:20:16 10° S 08:26:06 19° SE 08:32:00 10° E daylight
26 Feb - 10:20:20 10° SW 10:28:47 43° SSE 10:37:27 10° E daylight
26 Feb - 12:23:26 10° WSW 12:32:25 57° S 12:41:44 10° ESE daylight
26 Feb - 14:27:24 10° W 14:36:10 46° SSW 14:45:14 10° SE daylight
26 Feb - 16:32:21 10° W 16:39:08 22° SW 16:46:05 10° S daylight
27 Feb - 07:55:41 10° SSE 08:01:05 17° SE 08:06:33 10° E daylight
27 Feb - 09:55:20 10° SW 10:03:41 41° SSE 10:12:14 10° E daylight
27 Feb - 11:58:19 10° WSW 12:07:16 57° S 12:16:33 10° ESE daylight
27 Feb - 14:02:15 10° W 14:11:02 47° SSW 14:20:08 10° SE daylight
27 Feb - 16:07:03 10° W 16:14:05 24° SW 16:21:17 10° S daylight
28 Feb - 07:31:10 10° SSE 07:36:06 16° SE 07:41:03 10° E daylight
28 Feb - 09:30:21 10° SW 09:38:36 39° SSE 09:47:01 10° E daylight
28 Feb - 11:33:12 10° WSW 11:42:07 56° S 11:51:21 10° E daylight
28 Feb - 13:37:06 10° W 13:45:54 48° SSW 13:55:02 10° SE daylight
28 Feb - 15:41:47 10° W 15:49:01 25° SW 15:56:27 10° S daylight
29 Feb - 07:06:46 10° SSE 07:11:06 14° SE 07:15:28 10° E daylight
29 Feb - 09:05:23 10° SSW 09:13:31 37° SSE 09:21:48 10° E daylight
29 Feb - 11:08:05 10° WSW 11:16:59 56° S 11:26:09 10° E daylight
29 Feb - 13:11:57 10° W 13:20:47 50° SSW 13:29:54 10° SE daylight
29 Feb - 15:16:32 10° W 15:23:57 27° SW 15:31:36 10° SSE daylight
01 Mar - 06:42:31 10° SSE 06:46:07 13° SE 06:49:44 10° ESE daylight
01 Mar - 08:40:26 10° SSW 08:48:26 35° SSE 08:56:35 10° E daylight
01 Mar - 10:42:59 10° WSW 10:51:51 55° S 11:00:59 10° E daylight
01 Mar - 12:46:48 10° W 12:55:38 51° SSW 13:04:47 10° SE daylight
01 Mar - 14:51:18 10° W 14:58:53 29° SW 15:06:43 10° SSE daylight
02 Mar - 06:18:31 10° SE 06:21:08 11° SE 06:23:46 10° ESE visible
02 Mar - 08:15:30 10° SSW 08:23:22 34° SSE 08:31:21 10° E daylight
02 Mar - 10:17:53 10° WSW 10:26:43 54° S 10:35:47 10° E daylight
02 Mar - 12:21:39 10° W 12:30:31 52° SSW 12:39:39 10° ESE daylight
02 Mar - 14:26:04 10° W 14:33:49 30° SW 14:41:47 10° SSE daylight
